EB2EMZ-15 Weather Reports


time (UTC)temp
F
wind
direction
speed
knots
gust
knots
rain 1hr
in
rain 24hr
in
rain mn
in
humidity
%
barometer
mb
20260902093013 84 68 0.0 0.0 0.00 0.00 0.00 47 1001.9
20260902092511 88 68 0.0 0.0 0.00 0.00 0.00 44 1002.0
20260902092014 92 112 0.0 0.0 0.00 0.00 0.00 43 1001.9
20260902091512 92 112 0.0 0.0 0.00 0.00 0.00 44 1001.8
20260902091013 92 112 0.0 0.0 0.00 0.00 0.00 45 1001.9
20260902090512 90 112 0.0 0.0 0.00 0.00 0.00 47 1002.0
20260902090011 88 112 0.0 0.0 0.00 0.00 0.00 49 1002.0
20260902085512 87 112 0.0 0.0 0.00 0.00 0.00 51 1002.0
20260902085015 86 68 0.0 0.0 0.00 0.00 0.00 52 1002.0
20260902084512 84 68 0.0 0.0 0.00 0.00 0.00 54 1001.9
20260902084013 82 68 0.0 0.0 0.00 0.00 0.00 56 1001.8
20260902083511 81 68 0.0 0.0 0.00 0.00 0.00 58 1001.8
20260902083014 80 68 0.0 0.0 0.00 0.00 0.00 59 1001.9
20260902082511 79 68 0.0 0.0 0.00 0.00 0.00 60 1001.9
20260902082014 78 68 0.0 0.0 0.00 0.00 0.00 61 1001.9
20260902081511 78 68 0.0 0.0 0.00 0.00 0.00 61 1001.9
20260902081013 78 68 0.0 0.0 0.00 0.00 0.00 61 1002.0
20260902080512 78 68 0.0 0.0 0.00 0.00 0.00 62 1002.0
20260902080012 77 68 0.0 0.0 0.00 0.00 0.00 62 1002.0
20260902075511 77 68 0.0 0.0 0.00 0.00 0.00 63 1002.0
20260902075013 77 68 0.0 0.0 0.00 0.00 0.00 62 1002.1
20260902074513 77 68 0.0 0.0 0.00 0.00 0.00 64 1002.1
20260902074013 76 68 0.0 0.0 0.00 0.00 0.00 64 1002.0
20260902073511 76 68 0.0 0.0 0.00 0.00 0.00 65 1002.1
20260902073014 76 68 0.0 0.0 0.00 0.00 0.00 65 1002.2
20260902072512 76 45 0.0 0.0 0.00 0.00 0.00 65 1002.1
20260902072013 76 45 0.0 0.0 0.00 0.00 0.00 65 1002.0
20260902071512 75 45 0.0 0.0 0.00 0.00 0.00 66 1002.0
20260902071014 75 45 0.0 0.0 0.00 0.00 0.00 66 1002.0
20260902070511 74 45 0.0 0.0 0.00 0.00 0.00 68 1002.0
20260902070011 74 45 0.0 0.0 0.00 0.00 0.00 69 1001.9
20260902065511 73 45 0.0 0.0 0.00 0.00 0.00 70 1001.8
20260902065014 72 45 0.0 0.0 0.00 0.00 0.00 71 1001.8
20260902064511 71 45 0.0 0.0 0.00 0.00 0.00 73 1001.8
20260902064015 69 45 0.0 0.0 0.00 0.00 0.00 75 1001.9
20260902063510 68 45 0.0 0.0 0.00 0.00 0.00 77 1001.8
20260902063014 67 45 0.0 0.0 0.00 0.00 0.00 80 1001.6
20260902062512 65 45 0.0 0.0 0.00 0.00 0.00 82 1001.6
20260902062013 63 45 0.0 0.0 0.00 0.00 0.00 84 1001.6
20260902061511 61 45 0.0 0.0 0.00 0.00 0.00 85 1001.7
20260902061014 60 45 0.0 0.0 0.00 0.00 0.00 85 1001.8
20260902060511 60 45 0.0 0.0 0.00 0.00 0.00 85 1001.6
20260902060011 59 45 0.0 0.0 0.00 0.00 0.00 85 1001.6
20260902055511 59 45 0.0 0.0 0.00 0.00 0.00 85 1001.8
20260902055013 60 45 0.0 0.0 0.00 0.00 0.00 85 1001.7
20260902054511 60 45 0.0 0.0 0.00 0.00 0.00 85 1001.7
20260902054014 60 45 0.0 0.0 0.00 0.00 0.00 85 1001.7
20260902053511 60 37 0.0 0.0 0.00 0.00 0.00 85 1001.9
20260902053013 60 45 0.0 0.0 0.00 0.00 0.00 85 1001.9
20260902052511 60 45 0.0 0.0 0.00 0.00 0.00 85 1001.8
20260902052013 60 45 0.0 0.0 0.00 0.00 0.00 85 1001.7
20260902051511 60 45 0.0 0.0 0.00 0.00 0.00 85 1001.6
20260902051013 60 45 0.0 0.0 0.00 0.00 0.00 85 1001.6
20260902050511 60 45 0.0 0.0 0.00 0.00 0.00 85 1001.5
20260902050011 60 45 0.0 0.0 0.00 0.00 0.00 85 1001.5
20260902045511 60 45 0.0 0.0 0.00 0.00 0.00 85 1001.5
20260902045013 60 45 0.0 0.0 0.00 0.00 0.00 85 1001.5
20260902044511 60 45 0.0 0.0 0.00 0.00 0.00 85 1001.4
20260902044013 60 45 0.0 0.0 0.00 0.00 0.00 85 1001.5
20260902043510 60 45 0.0 0.0 0.00 0.00 0.00 85 1001.5
20260902043013 60 45 0.0 0.0 0.00 0.00 0.00 85 1001.6
20260902042511 60 45 0.0 0.0 0.00 0.00 0.00 85 1001.5
20260902042014 60 45 0.0 0.0 0.00 0.00 0.00 84 1001.6
20260902041511 60 45 0.0 0.0 0.00 0.00 0.00 84 1001.5
20260902041013 60 45 0.0 0.0 0.00 0.00 0.00 84 1001.5
20260902040511 60 45 0.0 0.0 0.00 0.00 0.00 84 1001.6
20260902040011 60 45 0.0 0.0 0.00 0.00 0.00 84 1001.4
20260902035511 60 45 0.0 0.0 0.00 0.00 0.00 84 1001.4
20260902035014 60 45 0.0 0.0 0.00 0.00 0.00 84 1001.5
20260902034510 61 45 0.0 0.0 0.00 0.00 0.00 84 1001.5
20260902034013 61 45 0.0 0.0 0.00 0.00 0.00 84 1001.5
20260902033510 61 45 0.0 0.0 0.00 0.00 0.00 84 1001.4
20260902033013 61 45 0.0 0.0 0.00 0.00 0.00 84 1001.4
20260902032510 61 45 0.0 0.0 0.00 0.00 0.00 84 1001.5
20260902032013 61 45 0.0 0.0 0.00 0.00 0.00 84 1001.5
20260902031511 61 45 0.0 0.0 0.00 0.00 0.00 84 1001.4
20260902031012 61 45 0.0 0.0 0.00 0.00 0.00 83 1001.4
20260902030511 61 45 0.0 0.0 0.00 0.00 0.00 84 1001.5
20260902030011 61 45 0.0 0.0 0.00 0.00 0.00 83 1001.4
20260902025511 61 45 0.0 0.0 0.00 0.00 0.00 83 1001.6
20260902025013 61 45 0.0 0.0 0.00 0.00 0.00 83 1001.5
20260902024511 62 45 0.0 0.0 0.00 0.00 0.00 83 1001.6
20260902024013 62 45 0.0 0.0 0.00 0.00 0.00 83 1001.6
20260902023511 62 45 0.0 0.0 0.00 0.00 0.00 83 1001.5
20260902023013 62 45 0.0 0.0 0.00 0.00 0.00 83 1001.4
20260902022511 62 45 0.0 0.0 0.00 0.00 0.00 83 1001.3
20260902022013 62 45 0.0 0.0 0.00 0.00 0.00 82 1001.3
20260902021511 62 45 0.0 0.0 0.00 0.00 0.00 82 1001.4
20260902021013 62 45 0.0 0.0 0.00 0.00 0.00 82 1001.4
20260902020510 62 45 0.0 0.0 0.00 0.00 0.00 82 1001.3
20260902020010 62 45 0.0 0.0 0.00 0.00 0.00 82 1001.4
20260902015511 62 45 0.0 0.0 0.00 0.00 0.00 82 1001.4
20260902015013 63 45 0.0 0.0 0.00 0.00 0.00 82 1001.5
20260902014511 63 45 0.0 0.0 0.00 0.00 0.00 82 1001.4
20260902014013 63 45 0.0 0.0 0.00 0.00 0.00 82 1001.5
20260902013511 63 45 0.0 0.0 0.00 0.00 0.00 82 1001.5
20260902013012 63 45 0.0 0.0 0.00 0.00 0.00 81 1001.3
20260902012510 63 45 0.0 0.0 0.00 0.00 0.00 81 1001.4
20260902012013 63 45 0.0 0.0 0.00 0.00 0.00 81 1001.3
20260902011510 64 45 0.0 0.0 0.00 0.00 0.00 80 1001.2
20260902011013 64 45 0.0 0.0 0.00 0.00 0.00 80 1001.1
20260902010511 64 45 0.0 0.0 0.00 0.00 0.00 80 1001.3
20260902010010 64 45 0.0 0.0 0.00 0.00 0.00 80 1001.3
20260902005511 64 45 0.0 0.0 0.00 0.00 0.00 80 1001.3
20260902005013 64 45 0.0 0.0 0.00 0.00 0.00 79 1001.3
20260902004511 64 45 0.0 0.0 0.00 0.00 0.00 79 1001.4
20260902004017 65 45 0.0 0.0 0.00 0.00 0.00 79 1001.4
20260902003510 65 45 0.0 0.0 0.00 0.00 0.00 79 1001.4
20260902003014 65 45 0.0 0.0 0.00 0.00 0.00 79 1001.4
20260902002510 65 45 0.0 0.0 0.00 0.00 0.00 78 1001.4
20260902002013 65 45 0.0 0.0 0.00 0.00 0.00 78 1001.3
20260902001510 65 45 0.0 0.0 0.00 0.00 0.00 78 1001.2
20260902001012 66 45 0.0 0.0 0.00 0.00 0.00 77 1001.5
20260902000511 66 45 0.0 0.0 0.00 0.00 0.00 77 1001.5
20260902000011 66 45 0.0 0.0 0.00 0.00 0.00 77 1001.5
20260901235510 66 45 0.0 0.0 0.00 0.00 0.00 77 1001.5
20260901235013 67 45 0.0 0.0 0.00 0.00 0.00 76 1001.4
20260901234511 67 45 0.0 0.0 0.00 0.00 0.00 76 1001.4
20260901234012 67 45 0.0 0.0 0.00 0.00 0.00 75 1001.3
20260901233510 67 45 0.0 0.0 0.00 0.00 0.00 75 1001.3
20260901233014 68 45 0.0 0.0 0.00 0.00 0.00 75 1001.2
20260901232511 68 45 0.0 0.0 0.00 0.00 0.00 75 1001.2
20260901232014 68 45 0.0 0.0 0.00 0.00 0.00 75 1001.2
20260901231510 68 45 0.0 0.0 0.00 0.00 0.00 75 1001.3
20260901231013 68 45 0.0 0.0 0.00 0.00 0.00 75 1001.1
20260901230510 68 45 0.0 0.0 0.00 0.00 0.00 75 1001.2
20260901225510 68 45 0.0 0.0 0.00 0.00 0.00 75 1001.1
20260901225013 68 45 0.0 0.0 0.00 0.00 0.00 75 1001.1
20260901224510 68 45 0.0 0.0 0.00 0.00 0.00 75 1001.1
20260901224012 68 45 0.0 0.0 0.00 0.00 0.00 75 1001.1
20260901223510 68 45 0.0 0.0 0.00 0.00 0.00 75 1001.1
20260901223013 68 45 0.0 0.0 0.00 0.00 0.00 74 1001.2
20260901222510 68 45 0.0 0.0 0.00 0.00 0.00 74 1001.1
20260901222013 68 45 0.0 0.0 0.00 0.00 0.00 74 1001.1
20260901221510 69 45 0.0 0.0 0.00 0.00 0.00 73 1001.0
20260901221013 69 45 0.0 0.0 0.00 0.00 0.00 73 1000.9
20260901220510 69 45 0.0 0.0 0.00 0.00 0.00 73 1001.0
20260901220010 69 45 0.0 0.0 0.00 0.00 0.00 73 1001.1
20260901215510 69 45 0.0 0.0 0.00 0.00 0.00 73 1001.2
20260901215012 69 45 0.0 0.0 0.00 0.00 0.00 73 1001.2
20260901214510 69 45 0.0 0.0 0.00 0.00 0.00 73 1001.3
20260901214013 69 45 0.0 0.0 0.00 0.00 0.00 73 1001.3
20260901213510 69 45 0.0 0.0 0.00 0.00 0.00 73 1001.2
20260901213012 69 45 0.0 0.0 0.00 0.00 0.00 73 1001.3
20260901212510 69 45 0.0 0.0 0.00 0.00 0.00 72 1001.4
20260901212013 69 45 0.0 0.0 0.00 0.00 0.00 72 1001.5
20260901211510 69 45 0.0 0.0 0.00 0.00 0.00 72 1001.5
20260901211012 69 45 0.0 0.0 0.00 0.00 0.00 72 1001.5
20260901210511 69 45 0.0 0.0 0.00 0.00 0.00 72 1001.5
20260901210011 69 45 0.0 0.0 0.00 0.00 0.00 72 1001.5
20260901205510 69 45 0.0 0.0 0.00 0.00 0.00 71 1001.5
20260901205013 69 45 0.0 0.0 0.00 0.00 0.00 71 1001.5
20260901204510 69 45 0.0 0.0 0.00 0.00 0.00 71 1001.4
20260901204012 69 45 0.0 0.0 0.00 0.00 0.00 71 1001.5
20260901203510 69 45 0.0 0.0 0.00 0.00 0.00 70 1001.4
20260901203013 69 45 0.0 0.0 0.00 0.00 0.00 70 1001.4
20260901202510 69 45 0.0 0.0 0.00 0.00 0.00 70 1001.4
20260901202012 70 49 0.0 0.0 0.00 0.00 0.00 70 1001.3
20260901201510 70 135 0.0 0.0 0.00 0.00 0.00 70 1001.2
20260901201012 70 158 0.0 0.0 0.00 0.00 0.00 70 1001.1
20260901200510 70 158 0.0 0.0 0.00 0.00 0.00 70 1001.1
20260901200010 71 156 0.0 0.0 0.00 0.00 0.00 70 1000.9
20260901195509 71 315 0.0 0.0 0.00 0.00 0.00 69 1001.0
20260901195012 71 338 0.0 0.0 0.00 0.00 0.00 69 1000.7
20260901194510 71 158 0.0 0.0 0.00 0.00 0.00 69 1000.9
20260901194013 71 180 0.0 0.0 0.00 0.00 0.00 69 1000.8
20260901193510 71 158 0.0 0.0 0.00 0.00 0.00 69 1000.7
20260901193012 71 158 0.0 0.0 0.00 0.00 0.00 69 1000.6
20260901192510 71 158 0.0 0.0 0.00 0.00 0.00 69 1000.6
20260901192012 72 158 0.0 0.0 0.00 0.00 0.00 69 1000.5
20260901191510 72 158 0.0 0.0 0.00 0.00 0.00 69 1000.5
20260901191013 72 177 0.0 0.0 0.00 0.00 0.00 68 1000.4
20260901190510 72 307 0.0 0.0 0.00 0.00 0.00 68 1000.4
20260901190011 72 338 0.0 0.0 0.00 0.00 0.00 68 1000.4
20260901185509 72 338 0.0 0.0 0.00 0.00 0.00 68 1000.4
20260901185012 72 0 0.0 0.0 0.00 0.00 0.00 68 1000.4
20260901184509 72 0 0.0 0.0 0.00 0.00 0.00 67 1000.4
20260901184012 72 0 0.0 0.0 0.00 0.00 0.00 67 1000.4
20260901183509 72 0 0.0 0.0 0.00 0.00 0.00 67 1000.1
20260901183013 72 0 0.0 0.0 0.00 0.00 0.00 67 1000.2
20260901182509 73 0 0.0 0.0 0.00 0.00 0.00 67 1000.2
20260901182012 73 338 0.0 0.0 0.00 0.00 0.00 67 1000.1
20260901181510 73 338 0.0 0.0 0.00 0.00 0.00 67 1000.1
20260901181012 73 338 0.0 0.0 0.00 0.00 0.00 67 999.9
20260901180510 73 338 0.0 0.0 0.00 0.00 0.00 66 999.8
20260901180009 73 338 0.0 0.0 0.00 0.00 0.00 66 999.7
20260901175510 73 338 0.0 0.0 0.00 0.00 0.00 66 999.6
20260901175012 73 338 0.0 0.0 0.00 0.00 0.00 66 999.6
20260901174510 73 338 0.0 1.7 0.00 0.00 0.00 66 999.5
20260901174016 73 359 0.0 1.7 0.00 0.00 0.00 65 999.5
20260901173509 73 318 0.0 0.0 0.00 0.00 0.00 65 999.5
20260901173012 74 338 0.0 0.0 0.00 0.00 0.00 65 999.4
20260901172510 74 120 0.0 2.6 0.00 0.00 0.00 65 999.4
20260901172012 74 158 0.0 0.0 0.00 0.00 0.00 65 999.3
20260901171509 74 338 0.0 0.0 0.00 0.00 0.00 65 999.4
20260901171012 74 0 0.0 0.0 0.00 0.00 0.00 65 999.2
20260901170509 74 0 0.0 0.0 0.00 0.00 0.00 65 999.2
20260901170010 74 255 0.0 0.0 0.00 0.00 0.00 64 999.1
20260901165509 74 158 0.0 0.9 0.00 0.00 0.00 64 999.2
20260901165012 74 158 0.9 2.6 0.00 0.00 0.00 64 999.1
20260901164509 74 338 0.0 0.0 0.00 0.00 0.00 64 999.3
20260901164012 74 158 0.9 2.6 0.00 0.00 0.00 64 999.3
20260901163509 74 0 0.0 0.0 0.00 0.00 0.00 64 999.4
20260901163012 74 158 0.0 0.0 0.00 0.00 0.00 64 999.3
20260901162509 74 159 0.0 4.3 0.00 0.00 0.00 64 999.2
20260901162012 74 158 0.9 4.3 0.00 0.00 0.00 64 999.1
20260901161510 74 332 0.0 0.0 0.00 0.00 0.00 64 999.1
20260901161012 74 158 0.0 0.0 0.00 0.00 0.00 64 999.3
20260901160509 74 158 0.0 0.0 0.00 0.00 0.00 64 999.3
20260901160009 75 158 0.9 5.2 0.00 0.00 0.00 64 999.2
20260901155510 74 338 0.0 0.9 0.00 0.00 0.00 64 999.2
20260901155012 74 327 0.0 0.0 0.00 0.00 0.00 65 999.3
20260901154509 74 158 0.0 1.7 0.00 0.00 0.00 65 999.1
20260901154012 74 158 0.0 0.9 0.00 0.00 0.00 65 999.2
20260901153509 74 158 0.0 1.7 0.00 0.00 0.00 65 999.1
20260901153012 74 158 0.0 0.0 0.00 0.00 0.00 65 999.2
20260901152509 74 315 0.0 0.0 0.00 0.00 0.00 65 999.3
20260901152014 74 267 0.0 0.0 0.00 0.00 0.00 65 999.2
20260901151509 74 158 0.0 0.0 0.00 0.00 0.00 65 999.2
20260901151013 74 158 0.0 2.6 0.00 0.00 0.00 65 999.3
20260901150509 74 158 0.0 2.6 0.00 0.00 0.00 65 999.4
20260901150009 74 158 0.0 0.9 0.00 0.00 0.00 65 999.3
20260901145510 75 158 0.0 1.7 0.00 0.00 0.00 65 999.3
20260901145012 74 158 0.0 0.0 0.00 0.00 0.00 66 999.4
20260901144509 74 338 0.0 0.0 0.00 0.00 0.00 65 999.4
20260901144012 74 338 0.0 0.0 0.00 0.00 0.00 66 999.5
20260901143509 74 158 1.7 5.2 0.00 0.00 0.00 66 999.4
20260901143012 74 160 0.9 7.0 0.00 0.00 0.00 66 999.4
20260901142509 74 162 0.9 5.2 0.00 0.00 0.00 67 999.4
20260901142011 74 125 0.0 0.0 0.00 0.00 0.00 67 999.5
20260901141509 74 158 0.0 0.0 0.00 0.00 0.00 67 999.4
20260901141011 74 158 0.0 1.7 0.00 0.00 0.00 67 999.6
20260901140509 74 158 0.0 0.0 0.00 0.00 0.00 68 999.5
20260901140010 74 158 0.9 2.6 0.00 0.00 0.00 67 999.5
20260901135510 74 325 0.0 1.7 0.00 0.00 0.00 67 999.5
20260901135011 74 338 0.0 4.3 0.00 0.00 0.00 67 999.6
20260901134509 74 241 0.0 0.0 0.00 0.00 0.00 67 999.6
20260901134012 74 158 0.9 4.3 0.00 0.00 0.00 67 999.5
20260901133510 74 158 0.0 1.7 0.00 0.00 0.00 67 999.5
20260901133011 74 158 0.9 1.7 0.00 0.00 0.00 67 999.5
20260901132509 74 161 0.9 5.2 0.00 0.00 0.00 66 999.5
20260901132012 74 158 0.9 2.6 0.00 0.00 0.00 66 999.6
20260901131510 75 158 0.9 5.2 0.00 0.00 0.00 66 999.6
20260901131011 75 158 0.9 4.3 0.00 0.00 0.00 66 999.6
20260901130508 75 158 0.9 6.1 0.00 0.00 0.00 67 999.6
20260901130009 75 164 1.7 5.2 0.00 0.00 0.00 67 999.7
20260901125509 75 164 0.0 4.3 0.00 0.00 0.00 66 999.6
20260901125011 75 165 1.7 4.3 0.00 0.00 0.00 66 999.7
20260901124509 75 158 0.9 4.3 0.00 0.00 0.00 67 999.6
20260901124012 75 160 0.9 5.2 0.00 0.00 0.00 66 999.7
20260901123509 75 170 0.9 5.2 0.00 0.00 0.00 67 999.7
20260901123011 74 160 0.0 4.3 0.00 0.00 0.00 66 999.8
20260901122509 74 150 0.9 2.6 0.00 0.00 0.00 67 999.9
20260901122011 74 158 0.9 2.6 0.00 0.00 0.00 67 999.9
20260901121509 74 158 0.9 4.3 0.00 0.00 0.00 67 999.7
20260901121011 74 338 0.0 2.6 0.00 0.00 0.00 68 999.8
20260901120509 74 163 0.0 2.6 0.00 0.00 0.00 68 999.9
20260901120008 74 162 0.9 4.3 0.00 0.00 0.00 67 999.9
20260901115509 74 163 0.0 4.3 0.00 0.00 0.00 67 999.8
20260901115012 75 316 0.0 0.0 0.00 0.00 0.00 67 999.9
20260901114509 74 158 0.0 1.7 0.00 0.00 0.00 67 999.9
20260901114012 74 158 0.9 5.2 0.00 0.00 0.00 66 999.9
20260901113509 75 152 1.7 5.2 0.00 0.00 0.00 66 1000.0
20260901113011 75 164 0.9 5.2 0.00 0.00 0.00 66 999.8
20260901112509 75 158 0.0 0.0 0.00 0.00 0.00 66 999.7
20260901112011 75 158 0.9 4.3 0.00 0.00 0.00 65 999.9
20260901111509 76 161 0.0 2.6 0.00 0.00 0.00 64 999.8
20260901111011 76 343 0.9 4.3 0.00 0.00 0.00 64 999.7
20260901110509 76 159 1.7 5.2 0.00 0.00 0.00 64 999.6
20260901110008 76 158 1.7 4.3 0.00 0.00 0.00 65 999.7
20260901105510 76 158 0.0 2.6 0.00 0.00 0.00 65 999.7
20260901105011 76 337 0.9 6.1 0.00 0.00 0.00 65 999.8
20260901104509 75 170 0.0 6.1 0.00 0.00 0.00 66 999.8
20260901104011 75 158 2.6 5.2 0.00 0.00 0.00 66 999.8
20260901103509 75 163 0.9 5.2 0.00 0.00 0.00 66 999.9
20260901103011 74 192 1.7 6.1 0.00 0.00 0.00 66 999.9
20260901102509 74 338 0.0 4.3 0.00 0.00 0.00 66 1000.0
20260901102011 74 158 0.9 5.2 0.00 0.00 0.00 66 1000.0
20260901101509 75 169 1.7 5.2 0.00 0.00 0.00 66 1000.0
20260901101010 75 158 1.7 5.2 0.00 0.00 0.00 66 1000.0
20260901100509 75 158 0.9 5.2 0.00 0.00 0.00 65 1000.1
20260901100010 76 153 0.9 5.2 0.00 0.00 0.00 65 1000.2
20260901095509 76 338 0.0 5.2 0.00 0.00 0.00 65 1000.0
20260901095011 76 161 0.9 5.2 0.00 0.00 0.00 66 1000.1
20260901094509 76 112 0.0 0.0 0.00 0.00 0.00 68 1000.1
20260901094011 76 90 0.0 0.0 0.00 0.00 0.00 68 1000.1
20260901093509 75 158 0.0 0.0 0.00 0.00 0.00 70 1000.0